| time (UTC) | temp C | wind direction | speed KPH | gust KPH | rain 1hr cm | rain 24hr cm | rain mn cm | humidity % | barometer mb |
| 20260506091502 | 22 | 68 | 1.6 | 6.4 | 0.00 | 0.00 | 0.00 | 96 | 1005.8 |
| 20260506091004 | 22 | 77 | 1.6 | 6.4 | 0.00 | 0.00 | 0.00 | 96 | 1005.7 |
| 20260506090503 | 22 | 57 | 1.6 | 6.4 | 0.00 | 0.00 | 0.00 | 96 | 1005.7 |
| 20260506090005 | 22 | 47 | 1.6 | 6.4 | 0.00 | 0.00 | 0.00 | 96 | 1005.5 |
| 20260506085502 | 22 | 59 | 3.2 | 6.4 | 0.00 | 0.00 | 0.00 | 95 | 1005.6 |
| 20260506085004 | 22 | 69 | 1.6 | 9.7 | 0.00 | 0.00 | 0.00 | 95 | 1005.6 |
| 20260506084502 | 22 | 59 | 3.2 | 9.7 | 0.00 | 0.00 | 0.00 | 95 | 1005.5 |
| 20260506084004 | 22 | 42 | 3.2 | 6.4 | 0.00 | 0.00 | 0.00 | 95 | 1005.6 |
| 20260506083502 | 22 | 50 | 3.2 | 6.4 | 0.00 | 0.00 | 0.00 | 95 | 1005.6 |
| 20260506082502 | 22 | 62 | 3.2 | 6.4 | 0.00 | 0.00 | 0.00 | 96 | 1006.0 |
| 20260506082004 | 22 | 64 | 3.2 | 6.4 | 0.00 | 0.00 | 0.00 | 95 | 1005.7 |
| 20260506081502 | 22 | 33 | 3.2 | 6.4 | 0.00 | 0.00 | 0.00 | 95 | 1005.9 |
| 20260506081005 | 22 | 21 | 3.2 | 6.4 | 0.00 | 0.00 | 0.00 | 94 | 1005.8 |
| 20260506080502 | 22 | 29 | 6.4 | 6.4 | 0.00 | 0.00 | 0.00 | 94 | 1005.8 |
| 20260506073502 | 22 | 20 | 3.2 | 6.4 | 0.00 | 0.00 | 0.00 | 94 | 1006.0 |
| 20260506073004 | 22 | 36 | 3.2 | 6.4 | 0.00 | 0.00 | 0.00 | 94 | 1006.1 |
| 20260506072502 | 22 | 36 | 1.6 | 6.4 | 0.00 | 0.00 | 0.00 | 94 | 1006.2 |
| 20260506072004 | 22 | 33 | 3.2 | 6.4 | 0.00 | 0.00 | 0.00 | 94 | 1006.2 |
| 20260506071502 | 22 | 45 | 3.2 | 6.4 | 0.00 | 0.00 | 0.00 | 94 | 1006.0 |
| 20260506071005 | 22 | 63 | 3.2 | 6.4 | 0.00 | 0.00 | 0.00 | 94 | 1006.1 |
| 20260506070503 | 22 | 69 | 3.2 | 6.4 | 0.00 | 0.00 | 0.00 | 94 | 1006.1 |
| 20260506062501 | 22 | 80 | 3.2 | 6.4 | 0.00 | 0.00 | 0.00 | 96 | 1006.4 |
| 20260506062003 | 22 | 57 | 1.6 | 6.4 | 0.00 | 0.00 | 0.00 | 96 | 1006.6 |
| 20260506061502 | 22 | 57 | 3.2 | 6.4 | 0.00 | 0.00 | 0.00 | 96 | 1006.6 |
| 20260506061004 | 22 | 57 | 3.2 | 6.4 | 0.00 | 0.00 | 0.00 | 95 | 1006.5 |
| 20260506051004 | 22 | 54 | 3.2 | 6.4 | 0.00 | 0.00 | 0.00 | 96 | 1006.7 |
| 20260506050502 | 22 | 55 | 3.2 | 6.4 | 0.00 | 0.00 | 0.00 | 95 | 1006.9 |
| 20260506045003 | 22 | 108 | 0.0 | 3.2 | 0.00 | 0.00 | 0.00 | 95 | 1006.9 |
| 20260506044502 | 22 | 99 | 1.6 | 6.4 | 0.00 | 0.00 | 0.00 | 95 | 1006.9 |
| 20260506043502 | 22 | 83 | 1.6 | 3.2 | 0.00 | 0.00 | 0.00 | 95 | 1007.1 |
| 20260506043005 | 22 | 73 | 0.0 | 3.2 | 0.00 | 0.00 | 0.00 | 95 | 1007.1 |
| 20260506042502 | 22 | 51 | 1.6 | 6.4 | 0.00 | 0.00 | 0.00 | 95 | 1007.0 |
| 20260506042004 | 22 | 62 | 0.0 | 6.4 | 0.00 | 0.00 | 0.00 | 94 | 1007.2 |
| 20260506041502 | 22 | 76 | 3.2 | 6.4 | 0.00 | 0.00 | 0.00 | 94 | 1007.0 |
| 20260506040502 | 22 | 90 | 3.2 | 6.4 | 0.00 | 0.00 | 0.00 | 94 | 1006.9 |
| 20260506040005 | 22 | 86 | 3.2 | 6.4 | 0.00 | 0.00 | 0.00 | 94 | 1007.1 |
| 20260506035004 | 22 | 80 | 3.2 | 6.4 | 0.00 | 0.00 | 0.00 | 94 | 1007.0 |
| 20260506034503 | 22 | 78 | 1.6 | 6.4 | 0.00 | 0.00 | 0.00 | 94 | 1007.4 |
| 20260506033502 | 23 | 68 | 3.2 | 6.4 | 0.00 | 0.00 | 0.00 | 94 | 1007.1 |
| 20260506033006 | 23 | 56 | 3.2 | 9.7 | 0.00 | 0.00 | 0.00 | 93 | 1007.2 |
| 20260506032502 | 23 | 32 | 3.2 | 11.3 | 0.00 | 0.00 | 0.00 | 93 | 1007.2 |
| 20260506032005 | 23 | 39 | 4.8 | 11.3 | 0.00 | 0.00 | 0.00 | 93 | 1007.1 |
| 20260506031502 | 23 | 71 | 3.2 | 9.7 | 0.00 | 0.00 | 0.00 | 93 | 1007.2 |
| 20260506031004 | 23 | 67 | 3.2 | 9.7 | 0.00 | 0.00 | 0.00 | 93 | 1007.0 |
| 20260506030501 | 23 | 32 | 3.2 | 6.4 | 0.00 | 0.00 | 0.00 | 93 | 1007.2 |
| 20260506025004 | 22 | 60 | 0.0 | 3.2 | 0.00 | 0.00 | 0.00 | 95 | 1007.1 |
| 20260506024504 | 22 | 55 | 1.6 | 3.2 | 0.00 | 0.00 | 0.00 | 96 | 1007.2 |
| 20260506024005 | 22 | 62 | 1.6 | 3.2 | 0.00 | 0.00 | 0.00 | 96 | 1007.3 |
| 20260506023502 | 22 | 60 | 3.2 | 3.2 | 0.00 | 0.00 | 0.00 | 95 | 1007.5 |
| 20260506023005 | 22 | 58 | 3.2 | 3.2 | 0.00 | 0.00 | 0.00 | 95 | 1007.5 |
| 20260506022503 | 22 | 53 | 0.0 | 6.4 | 0.00 | 0.00 | 0.00 | 95 | 1007.4 |
| 20260506022004 | 22 | 51 | 0.0 | 6.4 | 0.00 | 0.00 | 0.00 | 95 | 1007.6 |
| 20260506021502 | 23 | 52 | 3.2 | 6.4 | 0.00 | 0.00 | 0.00 | 95 | 1007.7 |
| 20260506020501 | 22 | 86 | 3.2 | 6.4 | 0.00 | 0.00 | 0.00 | 95 | 1007.7 |
| 20260506020005 | 22 | 94 | 3.2 | 3.2 | 0.00 | 0.00 | 0.00 | 96 | 1007.6 |
| 20260506015502 | 22 | 90 | 0.0 | 3.2 | 0.00 | 0.00 | 0.00 | 95 | 1007.6 |
| 20260506015005 | 22 | 87 | 0.0 | 3.2 | 0.00 | 0.00 | 0.00 | 96 | 1007.5 |
| 20260506014502 | 22 | 64 | 3.2 | 6.4 | 0.00 | 0.00 | 0.00 | 96 | 1007.6 |
| 20260506014004 | 22 | 59 | 3.2 | 6.4 | 0.00 | 0.00 | 0.00 | 95 | 1007.8 |
| 20260506013503 | 22 | 73 | 1.6 | 6.4 | 0.00 | 0.00 | 0.00 | 95 | 1007.8 |
| 20260506013004 | 22 | 72 | 1.6 | 6.4 | 0.00 | 0.00 | 0.00 | 95 | 1007.6 |
| 20260506012502 | 23 | 62 | 3.2 | 9.7 | 0.00 | 0.00 | 0.00 | 95 | 1007.5 |
| 20260506012005 | 23 | 77 | 1.6 | 9.7 | 0.00 | 0.00 | 0.00 | 95 | 1007.4 |
| 20260506011503 | 23 | 77 | 3.2 | 6.4 | 0.00 | 0.00 | 0.00 | 96 | 1007.4 |
| 20260506010502 | 22 | 99 | 3.2 | 6.4 | 0.00 | 0.00 | 0.00 | 96 | 1007.5 |
| 20260506010005 | 22 | 70 | 1.6 | 3.2 | 0.00 | 0.00 | 0.00 | 96 | 1007.6 |
| 20260506005502 | 22 | 75 | 0.0 | 6.4 | 0.00 | 0.00 | 0.00 | 96 | 1007.5 |
| 20260506005006 | 22 | 101 | 1.6 | 6.4 | 0.00 | 0.00 | 0.00 | 97 | 1007.7 |
| 20260506004503 | 22 | 96 | 0.0 | 3.2 | 0.00 | 0.00 | 0.00 | 97 | 1007.4 |
| 20260506003503 | 23 | 120 | 0.0 | 3.2 | 0.00 | 0.00 | 0.00 | 96 | 1007.7 |
| 20260506003005 | 23 | 0 | 0.0 | 0.0 | 0.00 | 0.00 | 0.00 | 96 | 1007.7 |
| 20260506002504 | 23 | 0 | 0.0 | 0.0 | 0.00 | 0.00 | 0.00 | 96 | 1007.5 |
| 20260506002004 | 23 | 83 | 0.0 | 3.2 | 0.00 | 0.00 | 0.00 | 96 | 1007.7 |
| 20260506001502 | 23 | 84 | 0.0 | 6.4 | 0.00 | 0.00 | 0.00 | 96 | 1007.4 |
| 20260506001005 | 23 | 92 | 0.0 | 6.4 | 0.00 | 0.00 | 0.00 | 96 | 1007.7 |
| 20260505235004 | 23 | 112 | 0.0 | 3.2 | 0.00 | 0.00 | 0.00 | 96 | 1007.3 |
| 20260505233502 | 23 | 124 | 0.0 | 3.2 | 0.00 | 0.00 | 0.00 | 96 | 1007.2 |
| 20260505233006 | 23 | 130 | 1.6 | 3.2 | 0.00 | 0.00 | 0.00 | 96 | 1007.3 |
| 20260505232503 | 23 | 147 | 0.0 | 3.2 | 0.00 | 0.00 | 0.00 | 96 | 1007.1 |
| 20260505232005 | 23 | 157 | 0.0 | 3.2 | 0.00 | 0.00 | 0.00 | 96 | 1007.0 |
| 20260505231504 | 23 | 154 | 0.0 | 3.2 | 0.00 | 0.00 | 0.00 | 96 | 1007.3 |
| 20260505231005 | 23 | 142 | 1.6 | 3.2 | 0.00 | 0.00 | 0.00 | 95 | 1007.1 |
| 20260505230006 | 23 | 149 | 1.6 | 3.2 | 0.00 | 0.00 | 0.00 | 95 | 1007.0 |
| 20260505225504 | 23 | 143 | 0.0 | 3.2 | 0.00 | 0.00 | 0.00 | 95 | 1007.0 |
| 20260505224502 | 23 | 181 | 0.0 | 3.2 | 0.00 | 0.00 | 0.00 | 95 | 1006.7 |
| 20260505223503 | 23 | 0 | 0.0 | 0.0 | 0.00 | 0.00 | 0.00 | 94 | 1006.7 |
| 20260505223005 | 23 | 0 | 0.0 | 0.0 | 0.00 | 0.00 | 0.00 | 94 | 1006.9 |
| 20260505222502 | 23 | 0 | 0.0 | 0.0 | 0.00 | 0.00 | 0.00 | 94 | 1006.8 |
| 20260505222004 | 23 | 0 | 0.0 | 0.0 | 0.00 | 0.00 | 0.00 | 94 | 1006.4 |
| 20260505221502 | 23 | 167 | 0.0 | 3.2 | 0.00 | 0.00 | 0.00 | 93 | 1006.4 |
| 20260505221004 | 24 | 151 | 0.0 | 3.2 | 0.00 | 0.00 | 0.00 | 93 | 1006.6 |
| 20260505220502 | 24 | 142 | 1.6 | 3.2 | 0.00 | 0.00 | 0.00 | 92 | 1006.7 |
| 20260505220005 | 24 | 158 | 0.0 | 3.2 | 0.00 | 0.00 | 0.00 | 92 | 1006.5 |
| 20260505215502 | 24 | 0 | 0.0 | 0.0 | 0.00 | 0.00 | 0.00 | 91 | 1006.6 |
| 20260505215004 | 24 | 0 | 0.0 | 0.0 | 0.00 | 0.00 | 0.00 | 91 | 1006.5 |
| 20260505214504 | 24 | 0 | 0.0 | 0.0 | 0.00 | 0.00 | 0.00 | 90 | 1006.6 |
| 20260505214005 | 24 | 0 | 0.0 | 0.0 | 0.00 | 0.00 | 0.00 | 90 | 1006.3 |
| 20260505213504 | 25 | 0 | 0.0 | 0.0 | 0.00 | 0.00 | 0.00 | 89 | 1006.5 |
| 20260505213004 | 25 | 0 | 0.0 | 0.0 | 0.00 | 0.00 | 0.00 | 88 | 1006.3 |
| 20260505212503 | 25 | 0 | 0.0 | 0.0 | 0.00 | 0.00 | 0.00 | 87 | 1006.5 |
| 20260505212005 | 25 | 0 | 0.0 | 0.0 | 0.00 | 0.00 | 0.00 | 86 | 1006.6 |
| 20260505210006 | 26 | 112 | 0.0 | 3.2 | 0.00 | 0.00 | 0.00 | 84 | 1006.3 |
| 20260505205503 | 26 | 115 | 0.0 | 3.2 | 0.00 | 0.00 | 0.00 | 83 | 1006.5 |
| 20260505204503 | 27 | 126 | 0.0 | 3.2 | 0.00 | 0.00 | 0.00 | 81 | 1006.7 |
| 20260505204005 | 26 | 102 | 0.0 | 6.4 | 0.00 | 0.00 | 0.00 | 82 | 1006.5 |
| 20260505203503 | 27 | 69 | 1.6 | 6.4 | 0.00 | 0.00 | 0.00 | 81 | 1006.3 |
| 20260505203005 | 27 | 70 | 3.2 | 6.4 | 0.00 | 0.00 | 0.00 | 81 | 1006.4 |
| 20260505202504 | 27 | 61 | 1.6 | 6.4 | 0.00 | 0.00 | 0.00 | 81 | 1006.5 |
| 20260505202005 | 26 | 53 | 3.2 | 6.4 | 0.00 | 0.00 | 0.00 | 81 | 1006.8 |
| 20260505201503 | 27 | 75 | 3.2 | 6.4 | 0.00 | 0.00 | 0.00 | 81 | 1006.4 |
| 20260505201006 | 27 | 86 | 3.2 | 6.4 | 0.00 | 0.00 | 0.00 | 81 | 1006.6 |
| 20260505200504 | 27 | 91 | 1.6 | 3.2 | 0.00 | 0.00 | 0.00 | 80 | 1006.4 |
| 20260505200005 | 27 | 120 | 0.0 | 6.4 | 0.00 | 0.00 | 0.00 | 81 | 1006.7 |
| 20260505195504 | 26 | 80 | 3.2 | 6.4 | 0.00 | 0.00 | 0.00 | 82 | 1006.7 |
| 20260505195005 | 26 | 78 | 3.2 | 6.4 | 0.00 | 0.00 | 0.00 | 83 | 1006.7 |
| 20260505194504 | 26 | 91 | 4.8 | 6.4 | 0.00 | 0.00 | 0.00 | 83 | 1006.9 |
| 20260505193503 | 26 | 46 | 3.2 | 6.4 | 0.00 | 0.00 | 0.00 | 83 | 1006.8 |
| 20260505193005 | 26 | 35 | 1.6 | 6.4 | 0.00 | 0.00 | 0.00 | 84 | 1006.7 |
| 20260505192503 | 26 | 41 | 3.2 | 6.4 | 0.00 | 0.00 | 0.00 | 84 | 1007.0 |
| 20260505192005 | 26 | 50 | 3.2 | 6.4 | 0.00 | 0.00 | 0.00 | 84 | 1007.1 |
| 20260505191503 | 26 | 84 | 3.2 | 6.4 | 0.00 | 0.00 | 0.00 | 83 | 1007.0 |
| 20260505191005 | 26 | 100 | 3.2 | 6.4 | 0.00 | 0.00 | 0.00 | 83 | 1007.1 |
| 20260505190504 | 26 | 76 | 3.2 | 9.7 | 0.00 | 0.00 | 0.00 | 83 | 1007.2 |
| 20260505190005 | 26 | 66 | 3.2 | 9.7 | 0.00 | 0.00 | 0.00 | 83 | 1006.9 |
| 20260505185504 | 26 | 38 | 0.0 | 9.7 | 0.00 | 0.00 | 0.00 | 83 | 1007.0 |
| 20260505185005 | 26 | 56 | 6.4 | 11.3 | 0.00 | 0.00 | 0.00 | 82 | 1006.9 |
| 20260505184503 | 26 | 97 | 3.2 | 11.3 | 0.00 | 0.00 | 0.00 | 81 | 1006.9 |
| 20260505183505 | 27 | 42 | 4.8 | 9.7 | 0.00 | 0.00 | 0.00 | 79 | 1006.8 |
| 20260505183005 | 27 | 49 | 3.2 | 6.4 | 0.00 | 0.00 | 0.00 | 79 | 1006.9 |
| 20260505182502 | 27 | 51 | 4.8 | 6.4 | 0.00 | 0.00 | 0.00 | 79 | 1006.6 |
| 20260505182005 | 26 | 77 | 3.2 | 9.7 | 0.00 | 0.00 | 0.00 | 81 | 1006.6 |
| 20260505181005 | 26 | 43 | 6.4 | 11.3 | 0.00 | 0.00 | 0.00 | 81 | 1006.6 |
| 20260505180503 | 26 | 64 | 6.4 | 11.3 | 0.00 | 0.00 | 0.00 | 80 | 1006.8 |
| 20260505180004 | 26 | 53 | 6.4 | 11.3 | 0.00 | 0.00 | 0.00 | 80 | 1006.5 |
| 20260505175503 | 26 | 27 | 6.4 | 11.3 | 0.00 | 0.00 | 0.00 | 81 | 1006.7 |
| 20260505175004 | 25 | 32 | 6.4 | 9.7 | 0.00 | 0.00 | 0.00 | 82 | 1006.8 |
| 20260505174004 | 25 | 49 | 6.4 | 9.7 | 0.00 | 0.00 | 0.00 | 83 | 1006.9 |
| 20260505173503 | 25 | 36 | 6.4 | 9.7 | 0.00 | 0.00 | 0.00 | 85 | 1007.1 |
| 20260505173005 | 25 | 32 | 4.8 | 9.7 | 0.00 | 0.00 | 0.00 | 84 | 1007.0 |
| 20260505172504 | 25 | 37 | 3.2 | 11.3 | 0.00 | 0.00 | 0.00 | 84 | 1007.0 |
| 20260505171503 | 25 | 50 | 6.4 | 14.5 | 0.00 | 0.00 | 0.00 | 85 | 1007.1 |
| 20260505170503 | 25 | 56 | 6.4 | 14.5 | 0.00 | 0.00 | 0.00 | 84 | 1007.3 |
| 20260505170005 | 25 | 58 | 6.4 | 14.5 | 0.00 | 0.00 | 0.00 | 85 | 1007.3 |
| 20260505165005 | 25 | 44 | 6.4 | 14.5 | 0.00 | 0.00 | 0.00 | 86 | 1007.4 |
| 20260505164505 | 24 | 37 | 6.4 | 12.9 | 0.00 | 0.00 | 0.00 | 87 | 1007.4 |
| 20260505163503 | 23 | 52 | 6.4 | 12.9 | 0.00 | 0.00 | 0.00 | 89 | 1007.5 |
| 20260505163006 | 23 | 50 | 4.8 | 14.5 | 0.00 | 0.00 | 0.00 | 90 | 1007.7 |
| 20260505162503 | 23 | 61 | 4.8 | 14.5 | 0.00 | 0.00 | 0.00 | 89 | 1008.0 |
| 20260505162005 | 23 | 73 | 6.4 | 14.5 | 0.00 | 0.00 | 0.00 | 90 | 1007.8 |
| 20260505161503 | 23 | 35 | 3.2 | 9.7 | 0.00 | 0.00 | 0.00 | 90 | 1007.7 |
| 20260505161005 | 23 | 25 | 3.2 | 9.7 | 0.00 | 0.00 | 0.00 | 93 | 1008.0 |
| 20260505160505 | 22 | 35 | 3.2 | 9.7 | 0.00 | 0.00 | 0.00 | 94 | 1008.2 |
| 20260505153006 | 23 | 62 | 6.4 | 12.9 | 0.00 | 0.00 | 0.00 | 89 | 1008.5 |
| 20260505152503 | 23 | 42 | 6.4 | 14.5 | 0.00 | 0.00 | 0.00 | 89 | 1008.4 |
| 20260505151505 | 22 | 69 | 6.4 | 11.3 | 0.00 | 0.00 | 0.00 | 91 | 1008.6 |
| 20260505151005 | 22 | 64 | 6.4 | 11.3 | 0.00 | 0.00 | 0.00 | 91 | 1008.7 |
| 20260505150503 | 22 | 42 | 4.8 | 11.3 | 0.00 | 0.00 | 0.00 | 91 | 1009.0 |
| 20260505140504 | 21 | 57 | 6.4 | 11.3 | 0.00 | 0.00 | 0.00 | 94 | 1009.2 |
| 20260505125006 | 20 | 24 | 4.8 | 11.3 | 0.00 | 0.00 | 0.00 | 94 | 1009.0 |
| 20260505124006 | 20 | 44 | 4.8 | 14.5 | 0.00 | 0.00 | 0.00 | 93 | 1008.9 |
| 20260505123504 | 20 | 43 | 8.0 | 14.5 | 0.00 | 0.00 | 0.00 | 92 | 1009.1 |
| 20260505123005 | 20 | 43 | 8.0 | 12.9 | 0.00 | 0.00 | 0.00 | 92 | 1008.8 |
| 20260505122503 | 20 | 58 | 3.2 | 11.3 | 0.00 | 0.00 | 0.00 | 92 | 1008.7 |
| 20260505122006 | 20 | 63 | 4.8 | 11.3 | 0.00 | 0.00 | 0.00 | 93 | 1008.6 |
| 20260505121503 | 20 | 67 | 8.0 | 11.3 | 0.00 | 0.00 | 0.00 | 95 | 1009.0 |
| 20260505121005 | 20 | 81 | 6.4 | 11.3 | 0.00 | 0.00 | 0.00 | 95 | 1008.8 |
| 20260505120503 | 20 | 75 | 3.2 | 11.3 | 0.00 | 0.00 | 0.00 | 96 | 1008.7 |
| 20260505120006 | 19 | 65 | 3.2 | 9.7 | 0.00 | 0.00 | 0.00 | 96 | 1008.9 |
| 20260505115504 | 19 | 45 | 3.2 | 9.7 | 0.00 | 0.00 | 0.00 | 96 | 1008.5 |
| 20260505115005 | 19 | 39 | 3.2 | 9.7 | 0.00 | 0.00 | 0.00 | 97 | 1008.5 |
| 20260505114504 | 19 | 62 | 3.2 | 12.9 | 0.00 | 0.00 | 0.00 | 97 | 1008.4 |
| 20260505114005 | 19 | 63 | 4.8 | 12.9 | 0.00 | 0.00 | 0.00 | 97 | 1008.5 |
| 20260505113504 | 18 | 57 | 6.4 | 12.9 | 0.00 | 0.00 | 0.00 | 97 | 1008.5 |
| 20260505113006 | 18 | 72 | 6.4 | 9.7 | 0.00 | 0.00 | 0.00 | 98 | 1008.5 |
| 20260505112503 | 18 | 75 | 4.8 | 9.7 | 0.00 | 0.00 | 0.00 | 98 | 1008.5 |
| 20260505112005 | 18 | 74 | 3.2 | 6.4 | 0.00 | 0.00 | 0.00 | 98 | 1008.6 |
| 20260505111504 | 18 | 60 | 4.8 | 9.7 | 0.00 | 0.00 | 0.00 | 98 | 1008.5 |
| 20260505111005 | 18 | 66 | 3.2 | 9.7 | 0.00 | 0.00 | 0.00 | 98 | 1008.4 |
| 20260505110503 | 18 | 85 | 4.8 | 9.7 | 0.00 | 0.00 | 0.00 | 98 | 1008.6 |
| 20260505102005 | 18 | 83 | 1.6 | 6.4 | 0.00 | 0.00 | 0.00 | 98 | 1008.1 |
| 20260505101504 | 18 | 95 | 1.6 | 9.7 | 0.00 | 0.00 | 0.00 | 98 | 1008.1 |
| 20260505101006 | 18 | 90 | 3.2 | 9.7 | 0.00 | 0.00 | 0.00 | 98 | 1008.0 |
| 20260505100504 | 18 | 72 | 3.2 | 9.7 | 0.00 | 0.00 | 0.00 | 98 | 1008.1 |
| 20260505100006 | 18 | 72 | 3.2 | 9.7 | 0.00 | 0.00 | 0.00 | 98 | 1007.9 |
| 20260505095006 | 18 | 65 | 3.2 | 6.4 | 0.00 | 0.00 | 0.00 | 98 | 1007.9 |
| 20260505094505 | 18 | 77 | 4.8 | 6.4 | 0.00 | 0.00 | 0.00 | 98 | 1007.7 |
| 20260505093504 | 18 | 58 | 3.2 | 9.7 | 0.00 | 0.00 | 0.00 | 98 | 1007.6 |
| 20260505093006 | 18 | 49 | 3.2 | 9.7 | 0.00 | 0.00 | 0.00 | 98 | 1007.7 |